Precipitable_Water
0.75 0.71 0.68 0.70 0.72 0.72 0.72 0.67 0.67 0.63 0.63 0.63 0.64 0.63 0.58 0.53 0.51 0.49 0.46 0.45 0.45 0.42 0.37 0.36 0.33 0.30 0.27 0.26 0.24 0.23 0.26 0.18 0.15 0.15 0.14 0.21 0.26 0.30 0.30 0.26 0.23 0.26 0.28 0.26 0.28 0.22 0.18 0.18 0.18 0.17 0.18 0.19 0.17 0.18 0.17 0.19 0.18 0.21 0.16 0.11 0.12 0.13 0.12 0.13 0.13 0.14 0.16 0.14 0.17 0.17 0.20 0.16 0.14 0.22 0.21 0.21 0.21 0.22 0.23 0.22 0.24 0.27 0.26 0.26 0.27 0.28 0.29 0.30
0.76 0.70 0.69 0.71 0.73 0.73 0.71 0.65 0.63 0.65 0.67 0.67 0.65 0.61 0.55 0.50 0.47 0.45 0.44 0.44 0.41 0.38 0.37 0.36 0.35 0.31 0.29 0.28 0.28 0.24 0.21 0.17 0.13 0.14 0.18 0.25 0.25 0.28 0.28 0.25 0.23 0.23 0.26 0.25 0.20 0.18 0.17 0.14 0.14 0.16 0.16 0.16 0.13 0.16 0.18 0.20 0.17 0.14 0.11 0.14 0.12 0.15 0.15 0.16 0.15 0.17 0.15 0.15 0.16 0.17 0.19 0.16 0.18 0.18 0.22 0.17 0.21 0.23 0.21 0.22 0.24 0.23 0.25 0.27 0.28 0.28 0.28 0.28
0.79 0.72 0.68 0.71 0.74 0.70 0.70 0.66 0.64 0.65 0.68 0.68 0.64 0.57 0.53 0.48 0.43 0.42 0.42 0.41 0.37 0.34 0.34 0.33 0.31 0.30 0.28 0.27 0.28 0.26 0.21 0.15 0.12 0.12 0.18 0.24 0.25 0.25 0.27 0.25 0.23 0.21 0.23 0.18 0.19 0.19 0.16 0.14 0.14 0.14 0.12 0.12 0.12 0.16 0.17 0.19 0.18 0.19 0.12 0.13 0.17 0.16 0.16 0.18 0.18 0.16 0.17 0.17 0.15 0.15 0.17 0.17 0.22 0.21 0.22 0.19 0.20 0.22 0.24 0.23 0.22 0.21 0.22 0.23 0.25 0.26 0.26 0.26
0.82 0.73 0.69 0.73 0.73 0.71 0.70 0.68 0.66 0.65 0.66 0.65 0.57 0.52 0.48 0.44 0.43 0.43 0.40 0.33 0.30 0.29 0.28 0.28 0.26 0.25 0.28 0.29 0.28 0.26 0.24 0.21 0.10 0.15 0.20 0.24 0.24 0.25 0.26 0.24 0.21 0.21 0.23 0.22 0.19 0.18 0.18 0.18 0.16 0.15 0.13 0.14 0.15 0.15 0.16 0.16 0.15 0.19 0.17 0.14 0.13 0.15 0.16 0.16 0.17 0.15 0.15 0.15 0.14 0.15 0.17 0.18 0.21 0.19 0.20 0.19 0.17 0.21 0.26 0.28 0.27 0.23 0.22 0.23 0.25 0.26 0.26 0.25
0.85 0.75 0.73 0.74 0.72 0.68 0.71 0.69 0.67 0.64 0.65 0.59 0.52 0.47 0.42 0.43 0.42 0.40 0.34 0.29 0.31 0.28 0.27 0.26 0.26 0.25 0.24 0.27 0.29 0.27 0.23 0.12 0.11 0.18 0.22 0.24 0.26 0.25 0.25 0.24 0.19 0.19 0.21 0.19 0.19 0.19 0.18 0.16 0.15 0.16 0.17 0.15 0.15 0.21 0.18 0.18 0.17 0.21 0.17 0.16 0.15 0.15 0.14 0.15 0.15 0.14 0.14 0.16 0.16 0.15 0.15 0.14 0.20 0.25 0.20 0.19 0.15 0.18 0.22 0.26 0.28 0.25 0.25 0.25 0.25 0.25 0.25 0.25
0.79 0.73 0.71 0.74 0.75 0.71 0.72 0.70 0.68 0.70 0.61 0.52 0.46 0.42 0.40 0.41 0.40 0.36 0.31 0.31 0.29 0.30 0.29 0.29 0.28 0.28 0.29 0.26 0.27 0.26 0.22 0.07 0.15 0.17 0.24 0.25 0.25 0.25 0.25 0.23 0.20 0.21 0.23 0.22 0.17 0.17 0.17 0.15 0.17 0.15 0.15 0.14 0.11 0.13 0.14 0.16 0.17 0.16 0.19 0.15 0.15 0.15 0.13 0.15 0.14 0.14 0.15 0.14 0.13 0.13 0.15 0.18 0.18 0.17 0.21 0.20 0.18 0.21 0.25 0.26 0.25 0.26 0.25 0.24 0.24 0.24 0.23 0.23
0.74 0.74 0.71 0.74 0.77 0.72 0.69 0.68 0.68 0.63 0.53 0.45 0.40 0.40 0.40 0.37 0.35 0.32 0.30 0.27 0.25 0.24 0.26 0.26 0.26 0.26 0.27 0.26 0.20 0.15 0.12 0.13 0.18 0.21 0.23 0.25 0.24 0.24 0.24 0.21 0.19 0.18 0.15 0.13 0.15 0.14 0.13 0.13 0.13 0.13 0.16 0.20 0.13 0.17 0.13 0.16 0.20 0.18 0.15 0.15 0.14 0.15 0.14 0.16 0.15 0.15 0.14 0.14 0.13 0.15 0.18 0.18 0.15 0.13 0.20 0.18 0.21 0.23 0.25 0.25 0.25 0.25 0.24 0.23 0.22 0.22 0.22 0.22
0.75 0.74 0.71 0.74 0.72 0.66 0.63 0.63 0.58 0.52 0.45 0.40 0.39 0.38 0.36 0.34 0.31 0.28 0.23 0.21 0.20 0.20 0.20 0.23 0.24 0.26 0.27 0.24 0.24 0.11 0.12 0.12 0.18 0.22 0.23 0.24 0.23 0.22 0.21 0.22 0.16 0.16 0.13 0.13 0.15 0.14 0.16 0.12 0.13 0.17 0.13 0.11 0.11 0.15 0.14 0.20 0.19 0.14 0.14 0.14 0.14 0.16 0.15 0.15 0.14 0.14 0.14 0.15 0.15 0.14 0.14 0.15 0.16 0.17 0.19 0.18 0.21 0.22 0.22 0.23 0.22 0.22 0.22 0.22 0.22 0.22 0.22 0.23
0.73 0.71 0.71 0.71 0.65 0.61 0.60 0.56 0.50 0.44 0.41 0.40 0.38 0.34 0.28 0.26 0.25 0.23 0.22 0.22 0.20 0.19 0.18 0.18 0.19 0.21 0.21 0.19 0.18 0.11 0.10 0.17 0.21 0.21 0.22 0.22 0.21 0.20 0.19 0.14 0.16 0.14 0.14 0.15 0.16 0.15 0.13 0.12 0.15 0.16 0.13 0.13 0.14 0.14 0.14 0.15 0.18 0.15 0.14 0.15 0.14 0.13 0.14 0.13 0.13 0.13 0.14 0.16 0.16 0.14 0.13 0.16 0.19 0.20 0.17 0.20 0.20 0.20 0.20 0.20 0.20 0.20 0.20 0.20 0.21 0.21 0.21 0.22
0.68 0.64 0.62 0.63 0.62 0.57 0.51 0.47 0.43 0.40 0.41 0.39 0.35 0.31 0.28 0.26 0.24 0.23 0.23 0.22 0.21 0.18 0.18 0.20 0.21 0.21 0.22 0.18 0.17 0.09 0.13 0.21 0.21 0.21 0.20 0.21 0.18 0.16 0.16 0.15 0.15 0.15 0.14 0.14 0.14 0.14 0.13 0.13 0.14 0.17 0.18 0.16 0.15 0.13 0.18 0.13 0.11 0.18 0.14 0.13 0.14 0.13 0.14 0.13 0.13 0.13 0.14 0.18 0.14 0.13 0.12 0.14 0.20 0.18 0.16 0.20 0.19 0.19 0.18 0.18 0.18 0.18 0.18 0.19 0.19 0.20 0.20 0.21
0.59 0.56 0.58 0.59 0.56 0.50 0.45 0.43 0.41 0.41 0.38 0.34 0.30 0.29 0.28 0.25 0.25 0.26 0.26 0.25 0.22 0.20 0.20 0.19 0.20 0.18 0.15 0.14 0.10 0.09 0.18 0.19 0.21 0.21 0.20 0.20 0.16 0.14 0.14 0.15 0.16 0.15 0.14 0.14 0.13 0.15 0.15 0.14 0.16 0.20 0.20 0.12 0.18 0.15 0.14 0.13 0.17 0.14 0.13 0.16 0.15 0.16 0.13 0.13 0.13 0.13 0.14 0.14 0.14 0.14 0.13 0.17 0.20 0.18 0.15 0.18 0.19 0.18 0.17 0.17 0.17 0.17 0.17 0.18 0.18 0.19 0.19 0.20
0.54 0.57 0.57 0.55 0.49 0.45 0.43 0.43 0.41 0.39 0.34 0.29 0.29 0.28 0.26 0.25 0.25 0.27 0.28 0.24 0.21 0.19 0.19 0.18 0.20 0.19 0.15 0.11 0.10 0.11 0.18 0.19 0.21 0.20 0.20 0.20 0.16 0.16 0.16 0.16 0.16 0.16 0.14 0.13 0.13 0.14 0.16 0.16 0.15 0.13 0.11 0.20 0.13 0.17 0.16 0.14 0.16 0.16 0.15 0.13 0.14 0.14 0.13 0.13 0.13 0.14 0.14 0.13 0.14 0.15 0.13 0.15 0.16 0.14 0.17 0.19 0.18 0.17 0.16 0.15 0.16 0.16 0.16 0.16 0.17 0.17 0.18 0.19
0.56 0.56 0.54 0.49 0.44 0.43 0.43 0.42 0.40 0.34 0.30 0.28 0.27 0.26 0.26 0.26 0.27 0.28 0.26 0.22 0.23 0.22 0.21 0.22 0.22 0.20 0.24 0.09 0.12 0.16 0.19 0.21 0.19 0.20 0.19 0.20 0.20 0.18 0.17 0.17 0.16 0.17 0.16 0.14 0.13 0.15 0.17 0.18 0.15 0.13 0.16 0.16 0.15 0.12 0.16 0.16 0.14 0.17 0.16 0.13 0.13 0.13 0.13 0.14 0.14 0.14 0.13 0.13 0.15 0.16 0.09 0.11 0.14 0.16 0.17 0.18 0.17 0.16 0.15 0.14 0.14 0.15 0.15 0.15 0.16 0.16 0.17 0.18
0.56 0.54 0.49 0.45 0.44 0.44 0.43 0.39 0.33 0.29 0.28 0.27 0.26 0.26 0.28 0.27 0.26 0.26 0.29 0.24 0.23 0.22 0.21 0.21 0.22 0.15 0.12 0.10 0.13 0.16 0.18 0.21 0.19 0.18 0.18 0.20 0.18 0.17 0.18 0.17 0.16 0.17 0.17 0.16 0.17 0.18 0.19 0.21 0.19 0.18 0.19 0.15 0.15 0.23 0.15 0.14 0.15 0.12 0.14 0.15 0.12 0.10 0.10 0.14 0.14 0.14 0.13 0.15 0.15 0.15 0.10 0.11 0.14 0.16 0.18 0.18 0.16 0.15 0.13 0.13 0.14 0.14 0.15 0.15 0.16 0.16 0.16 0.17
0.54 0.49 0.45 0.44 0.45 0.44 0.37 0.32 0.28 0.27 0.26 0.25 0.24 0.25 0.24 0.23 0.23 0.22 0.22 0.23 0.21 0.21 0.22 0.25 0.24 0.23 0.11 0.10 0.16 0.18 0.19 0.22 0.16 0.16 0.19 0.18 0.17 0.15 0.15 0.17 0.15 0.15 0.16 0.17 0.16 0.18 0.18 0.19 0.18 0.15 0.14 0.19 0.22 0.22 0.15 0.13 0.14 0.13 0.11 0.10 0.12 0.10 0.10 0.13 0.16 0.14 0.12 0.13 0.15 0.14 0.09 0.11 0.13 0.15 0.18 0.17 0.16 0.14 0.13 0.13 0.13 0.14 0.14 0.14 0.14 0.15 0.15 0.16
0.50 0.46 0.45 0.46 0.44 0.37 0.30 0.27 0.27 0.25 0.25 0.24 0.24 0.24 0.25 0.25 0.24 0.24 0.22 0.20 0.21 0.18 0.22 0.19 0.18 0.16 0.11 0.09 0.12 0.20 0.17 0.13 0.14 0.18 0.20 0.21 0.18 0.15 0.17 0.15 0.16 0.15 0.16 0.16 0.16 0.17 0.18 0.19 0.16 0.17 0.15 0.15 0.13 0.13 0.13 0.11 0.11 0.12 0.10 0.09 0.09 0.10 0.11 0.12 0.14 0.15 0.15 0.13 0.14 0.14 0.10 0.12 0.14 0.16 0.17 0.18 0.15 0.14 0.13 0.13 0.13 0.13 0.13 0.14 0.14 0.15 0.15 0.16
0.49 0.46 0.45 0.44 0.37 0.30 0.27 0.25 0.24 0.23 0.23 0.24 0.25 0.25 0.24 0.24 0.24 0.23 0.23 0.21 0.21 0.25 0.19 0.16 0.19 0.16 0.10 0.14 0.19 0.14 0.13 0.15 0.18 0.18 0.19 0.21 0.19 0.18 0.17 0.16 0.14 0.15 0.15 0.17 0.17 0.17 0.18 0.17 0.21 0.20 0.16 0.13 0.13 0.12 0.11 0.09 0.08 0.10 0.11 0.10 0.11 0.10 0.10 0.09 0.13 0.15 0.16 0.14 0.11 0.15 0.13 0.13 0.14 0.15 0.16 0.17 0.15 0.13 0.12 0.12 0.12 0.12 0.13 0.14 0.14 0.15 0.16 0.16
0.48 0.45 0.44 0.38 0.31 0.28 0.27 0.25 0.24 0.24 0.25 0.25 0.23 0.22 0.23 0.24 0.24 0.24 0.23 0.24 0.22 0.22 0.22 0.23 0.21 0.19 0.11 0.15 0.11 0.12 0.16 0.15 0.16 0.17 0.19 0.21 0.21 0.19 0.17 0.16 0.17 0.15 0.15 0.14 0.17 0.17 0.18 0.15 0.16 0.12 0.13 0.12 0.12 0.11 0.08 0.07 0.08 0.09 0.09 0.09 0.10 0.11 0.11 0.10 0.10 0.12 0.16 0.14 0.12 0.12 0.12 0.12 0.14 0.14 0.15 0.16 0.16 0.13 0.12 0.11 0.11 0.12 0.13 0.14 0.15 0.15 0.16 0.16
0.45 0.44 0.41 0.33 0.29 0.28 0.26 0.24 0.25 0.29 0.30 0.31 0.29 0.30 0.28 0.26 0.24 0.21 0.19 0.20 0.22 0.17 0.14 0.12 0.15 0.09 0.07 0.12 0.16 0.16 0.16 0.17 0.19 0.17 0.16 0.19 0.20 0.20 0.19 0.21 0.20 0.16 0.15 0.14 0.14 0.17 0.18 0.15 0.15 0.12 0.10 0.11 0.11 0.11 0.10 0.11 0.12 0.11 0.12 0.11 0.11 0.10 0.10 0.10 0.11 0.14 0.15 0.13 0.11 0.11 0.10 0.10 0.13 0.14 0.15 0.17 0.17 0.14 0.13 0.12 0.12 0.13 0.14 0.15 0.16 0.16 0.16 0.17
0.44 0.42 0.35 0.30 0.27 0.25 0.24 0.26 0.27 0.28 0.30 0.27 0.32 0.29 0.25 0.22 0.16 0.13 0.18 0.17 0.15 0.15 0.15 0.17 0.18 0.16 0.14 0.14 0.14 0.17 0.19 0.18 0.14 0.15 0.18 0.20 0.20 0.18 0.17 0.21 0.20 0.17 0.14 0.12 0.16 0.17 0.20 0.11 0.10 0.10 0.11 0.13 0.13 0.13 0.13 0.14 0.15 0.14 0.13 0.11 0.11 0.11 0.10 0.11 0.12 0.14 0.15 0.13 0.11 0.11 0.11 0.11 0.13 0.14 0.15 0.17 0.17 0.15 0.14 0.13 0.13 0.14 0.15 0.16 0.15 0.15 0.17 0.18
0.41 0.37 0.30 0.27 0.26 0.25 0.25 0.26 0.26 0.28 0.30 0.30 0.26 0.25 0.20 0.17 0.16 0.09 0.14 0.16 0.19 0.19 0.16 0.15 0.15 0.14 0.14 0.16 0.16 0.16 0.14 0.14 0.16 0.15 0.17 0.22 0.21 0.19 0.16 0.18 0.16 0.13 0.15 0.17 0.17 0.19 0.16 0.11 0.11 0.13 0.13 0.14 0.14 0.15 0.15 0.14 0.15 0.12 0.11 0.11 0.11 0.12 0.10 0.11 0.11 0.13 0.13 0.11 0.10 0.12 0.11 0.11 0.13 0.15 0.16 0.17 0.16 0.14 0.14 0.14 0.14 0.15 0.15 0.14 0.15 0.17 0.17 0.18
0.37 0.32 0.28 0.26 0.25 0.26 0.26 0.27 0.28 0.29 0.29 0.30 0.27 0.19 0.18 0.19 0.25 0.23 0.23 0.11 0.15 0.19 0.18 0.17 0.18 0.15 0.18 0.18 0.18 0.19 0.17 0.14 0.14 0.15 0.18 0.21 0.18 0.15 0.16 0.16 0.14 0.12 0.16 0.18 0.18 0.15 0.12 0.11 0.13 0.14 0.15 0.16 0.17 0.15 0.14 0.13 0.13 0.13 0.11 0.11 0.11 0.10 0.11 0.13 0.12 0.13 0.12 0.12 0.11 0.12 0.11 0.13 0.14 0.15 0.16 0.16 0.15 0.15 0.15 0.15 0.15 0.14 0.15 0.16 0.16 0.16 0.17 0.17
0.33 0.29 0.26 0.26 0.26 0.27 0.28 0.28 0.28 0.28 0.29 0.25 0.19 0.19 0.19 0.25 0.28 0.27 0.27 0.15 0.13 0.18 0.18 0.17 0.15 0.15 0.15 0.19 0.18 0.19 0.13 0.12 0.12 0.14 0.17 0.20 0.17 0.17 0.18 0.15 0.14 0.15 0.15 0.14 0.12 0.12 0.10 0.12 0.14 0.15 0.16 0.16 0.17 0.15 0.13 0.13 0.13 0.12 0.11 0.10 0.09 0.11 0.10 0.08 0.10 0.12 0.11 0.12 0.13 0.14 0.11 0.13 0.15 0.14 0.15 0.15 0.15 0.15 0.16 0.15 0.15 0.16 0.15 0.15 0.15 0.16 0.17 0.16
0.31 0.27 0.27 0.26 0.28 0.27 0.27 0.26 0.29 0.28 0.25 0.25 0.22 0.22 0.27 0.31 0.29 0.25 0.23 0.12 0.11 0.16 0.18 0.17 0.18 0.16 0.15 0.14 0.19 0.17 0.14 0.14 0.15 0.14 0.20 0.19 0.16 0.20 0.18 0.16 0.15 0.15 0.13 0.15 0.14 0.12 0.12 0.14 0.16 0.16 0.17 0.16 0.14 0.14 0.13 0.12 0.11 0.13 0.12 0.11 0.10 0.10 0.11 0.11 0.10 0.11 0.12 0.14 0.15 0.13 0.12 0.12 0.13 0.12 0.13 0.14 0.15 0.15 0.15 0.15 0.14 0.15 0.15 0.15 0.16 0.16 0.16 0.16
0.31 0.29 0.28 0.27 0.27 0.28 0.27 0.28 0.24 0.23 0.27 0.24 0.22 0.30 0.32 0.32 0.29 0.25 0.20 0.12 0.16 0.14 0.22 0.21 0.20 0.17 0.18 0.24 0.21 0.18 0.17 0.17 0.16 0.18 0.21 0.20 0.17 0.19 0.15 0.19 0.19 0.13 0.15 0.16 0.18 0.14 0.14 0.16 0.18 0.18 0.16 0.15 0.14 0.13 0.13 0.12 0.11 0.12 0.13 0.12 0.12 0.12 0.11 0.11 0.12 0.11 0.10 0.09 0.14 0.12 0.08 0.07 0.11 0.11 0.12 0.13 0.13 0.13 0.14 0.13 0.13 0.13 0.15 0.16 0.16 0.16 0.16 0.15
0.31 0.29 0.28 0.27 0.28 0.30 0.29 0.21 0.21 0.24 0.28 0.21 0.25 0.30 0.34 0.34 0.35 0.29 0.19 0.12 0.07 0.11 0.25 0.12 0.21 0.14 0.25 0.15 0.20 0.18 0.22 0.14 0.19 0.19 0.21 0.21 0.25 0.19 0.21 0.15 0.17 0.12 0.15 0.17 0.14 0.14 0.15 0.18 0.18 0.16 0.15 0.15 0.14 0.13 0.14 0.14 0.12 0.11 0.11 0.14 0.13 0.13 0.12 0.12 0.11 0.11 0.09 0.08 0.11 0.13 0.07 0.06 0.09 0.10 0.11 0.12 0.13 0.13 0.13 0.13 0.14 0.14 0.16 0.16 0.15 0.16 0.14 0.12
0.30 0.28 0.26 0.27 0.28 0.29 0.23 0.22 0.27 0.24 0.20 0.19 0.30 0.33 0.34 0.35 0.33 0.26 0.18 0.10 0.07 0.11 0.12 0.16 0.22 0.14 0.23 0.16 0.19 0.22 0.10 0.13 0.22 0.19 0.20 0.22 0.20 0.25 0.18 0.15 0.19 0.19 0.19 0.18 0.18 0.12 0.17 0.17 0.16 0.16 0.15 0.14 0.13 0.12 0.14 0.14 0.13 0.11 0.14 0.14 0.13 0.13 0.12 0.12 0.12 0.12 0.11 0.12 0.14 0.12 0.10 0.07 0.07 0.11 0.12 0.13 0.13 0.13 0.13 0.14 0.15 0.15 0.15 0.15 0.15 0.14 0.12 0.10
0.28 0.28 0.27 0.27 0.28 0.28 0.24 0.23 0.22 0.19 0.24 0.29 0.33 0.35 0.35 0.34 0.34 0.28 0.13 0.05 0.05 0.16 0.11 0.14 0.16 0.22 0.19 0.19 0.20 0.14 0.14 0.21 0.18 0.16 0.22 0.23 0.22 0.21 0.17 0.15 0.14 0.14 0.17 0.19 0.10 0.14 0.16 0.16 0.15 0.15 0.15 0.14 0.12 0.14 0.15 0.15 0.13 0.13 0.14 0.14 0.13 0.14 0.13 0.13 0.12 0.11 0.11 0.11 0.09 0.10 0.10 0.08 0.07 0.11 0.13 0.14 0.11 0.13 0.13 0.12 0.14 0.14 0.15 0.15 0.12 0.09 0.08 0.07
0.28 0.28 0.28 0.27 0.27 0.28 0.31 0.28 0.26 0.22 0.30 0.34 0.34 0.36 0.37 0.37 0.27 0.19 0.11 0.05 0.09 0.13 0.23 0.17 0.24 0.20 0.17 0.23 0.16 0.18 0.17 0.19 0.14 0.17 0.22 0.27 0.23 0.20 0.15 0.16 0.18 0.17 0.17 0.15 0.12 0.15 0.17 0.17 0.17 0.18 0.15 0.13 0.15 0.16 0.16 0.15 0.13 0.15 0.16 0.17 0.16 0.15 0.14 0.13 0.12 0.11 0.11 0.11 0.08 0.09 0.10 0.08 0.07 0.10 0.12 0.13 0.12 0.10 0.11 0.12 0.13 0.14 0.14 0.12 0.10 0.10 0.10 0.10
0.29 0.29 0.29 0.29 0.27 0.26 0.25 0.28 0.24 0.33 0.34 0.35 0.35 0.34 0.33 0.26 0.18 0.09 0.06 0.04 0.12 0.08 0.15 0.16 0.16 0.13 0.18 0.17 0.15 0.17 0.15 0.18 0.20 0.20 0.22 0.18 0.21 0.24 0.20 0.23 0.19 0.17 0.16 0.17 0.16 0.16 0.17 0.21 0.22 0.19 0.15 0.16 0.16 0.17 0.17 0.16 0.16 0.18 0.15 0.14 0.13 0.13 0.12 0.12 0.12 0.11 0.11 0.07 0.08 0.10 0.11 0.09 0.07 0.09 0.11 0.09 0.10 0.11 0.11 0.11 0.13 0.13 0.11 0.09 0.08 0.08 0.08 0.07
0.28 0.28 0.28 0.28 0.26 0.27 0.26 0.20 0.26 0.35 0.36 0.36 0.35 0.30 0.25 0.18 0.10 0.07 0.04 0.07 0.13 0.12 0.17 0.15 0.12 0.19 0.13 0.12 0.12 0.16 0.18 0.18 0.17 0.19 0.17 0.20 0.18 0.19 0.21 0.18 0.23 0.16 0.16 0.16 0.15 0.17 0.17 0.19 0.20 0.19 0.22 0.19 0.18 0.16 0.18 0.18 0.18 0.16 0.14 0.13 0.13 0.11 0.12 0.11 0.11 0.12 0.08 0.07 0.10 0.11 0.11 0.10 0.07 0.07 0.10 0.13 0.13 0.13 0.13 0.12 0.12 0.11 0.11 0.10 0.09 0.08 0.07 0.06
0.27 0.28 0.28 0.24 0.27 0.33 0.22 0.21 0.29 0.36 0.36 0.35 0.31 0.23 0.16 0.10 0.09 0.07 0.06 0.13 0.07 0.10 0.10 0.11 0.16 0.13 0.14 0.15 0.14 0.14 0.13 0.17 0.18 0.18 0.16 0.16 0.15 0.14 0.15 0.13 0.15 0.12 0.12 0.12 0.12 0.16 0.14 0.15 0.17 0.20 0.21 0.19 0.16 0.15 0.15 0.18 0.17 0.15 0.14 0.13 0.10 0.09 0.09 0.07 0.09 0.08 0.08 0.08 0.10 0.12 0.11 0.09 0.08 0.10 0.13 0.13 0.13 0.13 0.13 0.14 0.13 0.12 0.11 0.08 0.07 0.06 0.05 0.05
0.27 0.26 0.27 0.28 0.31 0.27 0.28 0.32 0.36 0.35 0.35 0.30 0.25 0.21 0.13 0.08 0.05 0.07 0.07 0.10 0.07 0.13 0.12 0.16 0.13 0.13 0.13 0.14 0.13 0.15 0.17 0.13 0.18 0.18 0.20 0.17 0.16 0.17 0.18 0.17 0.18 0.16 0.10 0.13 0.12 0.12 0.14 0.17 0.17 0.18 0.19 0.19 0.17 0.13 0.13 0.13 0.15 0.14 0.13 0.12 0.10 0.08 0.07 0.07 0.08 0.09 0.09 0.10 0.12 0.12 0.13 0.08 0.10 0.11 0.13 0.13 0.14 0.14 0.14 0.14 0.15 0.13 0.09 0.06 0.05 0.06 0.06 0.06
0.25 0.26 0.23 0.26 0.26 0.27 0.29 0.33 0.34 0.34 0.29 0.25 0.20 0.14 0.09 0.06 0.05 0.11 0.09 0.10 0.09 0.15 0.15 0.13 0.13 0.14 0.13 0.11 0.12 0.15 0.13 0.16 0.16 0.16 0.18 0.15 0.15 0.14 0.16 0.18 0.18 0.16 0.16 0.14 0.11 0.12 0.10 0.11 0.14 0.16 0.14 0.19 0.17 0.16 0.15 0.15 0.15 0.15 0.16 0.14 0.12 0.12 0.09 0.08 0.09 0.08 0.08 0.09 0.11 0.14 0.10 0.09 0.09 0.10 0.15 0.14 0.14 0.14 0.15 0.14 0.13 0.10 0.08 0.07 0.06 0.05 0.05 0.06
0.25 0.25 0.25 0.27 0.29 0.29 0.30 0.32 0.32 0.31 0.26 0.21 0.14 0.11 0.07 0.06 0.07 0.08 0.08 0.10 0.12 0.14 0.13 0.15 0.12 0.12 0.12 0.13 0.14 0.16 0.15 0.13 0.16 0.16 0.15 0.15 0.14 0.14 0.14 0.15 0.18 0.19 0.18 0.14 0.14 0.14 0.12 0.12 0.16 0.19 0.18 0.19 0.17 0.19 0.19 0.17 0.17 0.16 0.17 0.17 0.14 0.12 0.15 0.10 0.11 0.11 0.11 0.10 0.10 0.11 0.10 0.11 0.11 0.14 0.15 0.14 0.15 0.15 0.13 0.12 0.11 0.08 0.06 0.04 0.03 0.05 0.05 0.06
0.29 0.20 0.27 0.20 0.23 0.26 0.30 0.32 0.31 0.28 0.22 0.17 0.12 0.09 0.08 0.08 0.07 0.09 0.10 0.16 0.14 0.12 0.13 0.13 0.13 0.11 0.10 0.11 0.14 0.13 0.18 0.15 0.15 0.16 0.15 0.16 0.16 0.15 0.18 0.17 0.17 0.19 0.17 0.13 0.14 0.12 0.13 0.12 0.18 0.19 0.20 0.19 0.18 0.19 0.19 0.19 0.12 0.16 0.16 0.14 0.14 0.17 0.16 0.13 0.13 0.14 0.13 0.12 0.10 0.12 0.10 0.11 0.14 0.14 0.14 0.14 0.14 0.12 0.12 0.11 0.08 0.05 0.05 0.06 0.05 0.04 0.05 0.06
0.20 0.22 0.17 0.21 0.22 0.26 0.29 0.31 0.29 0.25 0.22 0.15 0.11 0.07 0.09 0.09 0.12 0.13 0.15 0.14 0.14 0.15 0.12 0.09 0.10 0.10 0.09 0.10 0.11 0.13 0.15 0.17 0.15 0.14 0.12 0.17 0.15 0.17 0.17 0.18 0.21 0.20 0.21 0.18 0.16 0.17 0.13 0.13 0.19 0.17 0.17 0.20 0.20 0.20 0.20 0.20 0.19 0.17 0.15 0.16 0.19 0.20 0.18 0.14 0.10 0.11 0.11 0.09 0.10 0.11 0.10 0.10 0.11 0.09 0.14 0.13 0.12 0.12 0.11 0.10 0.08 0.06 0.06 0.04 0.04 0.04 0.04 0.06
0.20 0.18 0.18 0.19 0.22 0.27 0.29 0.30 0.27 0.22 0.17 0.13 0.08 0.08 0.12 0.09 0.14 0.15 0.18 0.16 0.14 0.14 0.11 0.10 0.10 0.13 0.10 0.11 0.11 0.12 0.14 0.14 0.13 0.15 0.13 0.15 0.14 0.20 0.18 0.18 0.21 0.21 0.21 0.23 0.18 0.17 0.18 0.13 0.16 0.18 0.18 0.20 0.21 0.20 0.18 0.20 0.21 0.18 0.17 0.21 0.15 0.13 0.13 0.15 0.13 0.10 0.09 0.09 0.09 0.11 0.12 0.11 0.11 0.10 0.12 0.12 0.11 0.11 0.10 0.10 0.08 0.06 0.05 0.04 0.04 0.04 0.04 0.06
0.21 0.18 0.15 0.18 0.24 0.28 0.29 0.29 0.26 0.18 0.14 0.10 0.09 0.08 0.12 0.13 0.16 0.16 0.18 0.18 0.17 0.13 0.10 0.11 0.10 0.11 0.12 0.11 0.12 0.13 0.14 0.12 0.14 0.13 0.12 0.14 0.13 0.19 0.18 0.20 0.19 0.22 0.23 0.22 0.19 0.19 0.19 0.13 0.14 0.18 0.18 0.20 0.20 0.18 0.14 0.16 0.20 0.21 0.21 0.19 0.20 0.17 0.15 0.13 0.14 0.13 0.13 0.10 0.10 0.09 0.11 0.10 0.12 0.12 0.13 0.12 0.12 0.11 0.10 0.09 0.07 0.06 0.06 0.05 0.04 0.04 0.04 0.06
0.19 0.15 0.13 0.20 0.24 0.28 0.27 0.26 0.20 0.15 0.14 0.10 0.10 0.10 0.15 0.12 0.16 0.19 0.20 0.18 0.13 0.13 0.11 0.11 0.12 0.11 0.12 0.13 0.13 0.13 0.14 0.14 0.14 0.13 0.14 0.15 0.14 0.21 0.18 0.22 0.19 0.21 0.23 0.23 0.20 0.21 0.17 0.18 0.13 0.17 0.21 0.20 0.16 0.17 0.16 0.17 0.17 0.18 0.18 0.18 0.18 0.18 0.19 0.17 0.17 0.15 0.13 0.11 0.11 0.10 0.09 0.11 0.13 0.15 0.14 0.13 0.12 0.11 0.10 0.08 0.07 0.06 0.05 0.04 0.04 0.04 0.04 0.06
0.21 0.17 0.14 0.22 0.23 0.27 0.28 0.18 0.13 0.11 0.11 0.13 0.14 0.13 0.15 0.13 0.16 0.17 0.20 0.20 0.18 0.18 0.13 0.13 0.12 0.11 0.12 0.12 0.12 0.15 0.13 0.14 0.14 0.14 0.14 0.15 0.15 0.14 0.22 0.21 0.22 0.20 0.22 0.22 0.20 0.20 0.17 0.17 0.14 0.16 0.17 0.17 0.17 0.20 0.19 0.19 0.19 0.18 0.18 0.17 0.18 0.17 0.15 0.14 0.13 0.17 0.16 0.14 0.12 0.11 0.09 0.12 0.15 0.16 0.15 0.14 0.13 0.12 0.11 0.09 0.07 0.06 0.05 0.04 0.04 0.04 0.04 0.06
0.16 0.11 0.13 0.20 0.24 0.24 0.20 0.13 0.13 0.16 0.14 0.12 0.11 0.15 0.13 0.20 0.16 0.16 0.17 0.19 0.18 0.14 0.18 0.15 0.14 0.14 0.13 0.13 0.14 0.15 0.14 0.14 0.14 0.14 0.15 0.14 0.17 0.17 0.20 0.25 0.24 0.25 0.21 0.18 0.19 0.22 0.21 0.19 0.17 0.15 0.17 0.17 0.19 0.21 0.21 0.21 0.21 0.21 0.21 0.19 0.20 0.19 0.18 0.16 0.13 0.14 0.16 0.15 0.16 0.15 0.13 0.13 0.17 0.17 0.16 0.15 0.14 0.13 0.12 0.09 0.07 0.06 0.05 0.04 0.04 0.04 0.05 0.06
0.14 0.12 0.17 0.21 0.24 0.23 0.16 0.12 0.15 0.14 0.13 0.16 0.20 0.18 0.19 0.16 0.15 0.17 0.15 0.17 0.14 0.17 0.15 0.15 0.15 0.14 0.15 0.15 0.15 0.15 0.15 0.14 0.15 0.14 0.15 0.17 0.17 0.20 0.23 0.26 0.26 0.24 0.23 0.21 0.21 0.21 0.23 0.18 0.15 0.16 0.18 0.20 0.21 0.21 0.21 0.21 0.21 0.20 0.20 0.21 0.21 0.19 0.19 0.17 0.17 0.17 0.15 0.15 0.14 0.13 0.12 0.13 0.17 0.17 0.17 0.16 0.15 0.14 0.12 0.10 0.07 0.06 0.05 0.05 0.05 0.04 0.05 0.06
0.14 0.14 0.16 0.23 0.24 0.19 0.16 0.10 0.10 0.12 0.13 0.16 0.17 0.15 0.19 0.17 0.15 0.14 0.15 0.15 0.15 0.13 0.14 0.14 0.15 0.17 0.15 0.18 0.16 0.14 0.16 0.12 0.16 0.15 0.15 0.17 0.18 0.24 0.25 0.26 0.27 0.22 0.22 0.21 0.20 0.23 0.18 0.17 0.16 0.14 0.15 0.16 0.17 0.18 0.19 0.20 0.21 0.19 0.20 0.21 0.22 0.21 0.21 0.20 0.19 0.19 0.15 0.16 0.15 0.14 0.12 0.13 0.17 0.18 0.17 0.16 0.15 0.14 0.12 0.10 0.08 0.06 0.05 0.05 0.05 0.04 0.05 0.06
0.13 0.15 0.15 0.17 0.21 0.18 0.14 0.15 0.12 0.12 0.13 0.13 0.13 0.13 0.14 0.14 0.17 0.17 0.16 0.15 0.17 0.15 0.14 0.14 0.16 0.18 0.16 0.18 0.17 0.16 0.17 0.15 0.13 0.17 0.17 0.17 0.18 0.25 0.25 0.26 0.27 0.24 0.26 0.27 0.25 0.27 0.20 0.18 0.17 0.14 0.12 0.11 0.12 0.13 0.15 0.17 0.19 0.21 0.21 0.21 0.22 0.21 0.20 0.19 0.16 0.17 0.15 0.17 0.17 0.15 0.13 0.16 0.18 0.18 0.17 0.16 0.16 0.14 0.12 0.10 0.08 0.06 0.05 0.05 0.05 0.04 0.05 0.06
0.11 0.09 0.13 0.14 0.17 0.16 0.16 0.19 0.17 0.14 0.13 0.13 0.12 0.13 0.14 0.12 0.16 0.19 0.19 0.16 0.18 0.17 0.16 0.16 0.18 0.18 0.16 0.16 0.15 0.15 0.15 0.18 0.15 0.15 0.16 0.16 0.18 0.22 0.26 0.26 0.27 0.27 0.27 0.27 0.25 0.25 0.20 0.20 0.19 0.18 0.17 0.16 0.18 0.20 0.22 0.22 0.21 0.19 0.21 0.22 0.22 0.22 0.22 0.21 0.19 0.17 0.15 0.17 0.16 0.16 0.16 0.16 0.16 0.16 0.16 0.16 0.15 0.14 0.12 0.10 0.08 0.06 0.06 0.05 0.05 0.05 0.05 0.06
0.13 0.10 0.10 0.10 0.14 0.14 0.13 0.16 0.14 0.15 0.12 0.15 0.11 0.13 0.12 0.13 0.14 0.15 0.20 0.14 0.18 0.17 0.16 0.16 0.16 0.14 0.15 0.15 0.15 0.14 0.16 0.16 0.17 0.16 0.16 0.17 0.19 0.21 0.25 0.26 0.28 0.29 0.28 0.27 0.27 0.24 0.21 0.19 0.19 0.20 0.20 0.20 0.21 0.21 0.22 0.22 0.20 0.20 0.20 0.21 0.23 0.22 0.21 0.20 0.18 0.17 0.19 0.17 0.15 0.18 0.18 0.16 0.16 0.17 0.17 0.16 0.15 0.14 0.13 0.11 0.08 0.07 0.06 0.06 0.05 0.05 0.06 0.06
0.10 0.13 0.13 0.16 0.14 0.10 0.11 0.12 0.16 0.15 0.16 0.16 0.14 0.15 0.13 0.13 0.13 0.12 0.16 0.18 0.19 0.19 0.15 0.15 0.16 0.17 0.16 0.15 0.15 0.13 0.15 0.15 0.16 0.15 0.17 0.18 0.19 0.21 0.21 0.26 0.26 0.29 0.28 0.27 0.26 0.23 0.20 0.18 0.21 0.20 0.20 0.22 0.22 0.22 0.23 0.23 0.22 0.21 0.21 0.21 0.21 0.22 0.22 0.20 0.20 0.20 0.20 0.17 0.16 0.18 0.19 0.17 0.17 0.18 0.18 0.17 0.16 0.15 0.13 0.11 0.09 0.08 0.07 0.06 0.06 0.05 0.05 0.06
0.15 0.14 0.14 0.18 0.13 0.14 0.15 0.16 0.17 0.16 0.15 0.15 0.14 0.15 0.13 0.13 0.12 0.14 0.14 0.14 0.16 0.15 0.17 0.12 0.13 0.15 0.16 0.17 0.16 0.14 0.15 0.13 0.14 0.17 0.16 0.17 0.18 0.19 0.19 0.22 0.26 0.29 0.28 0.25 0.24 0.24 0.21 0.20 0.20 0.20 0.20 0.22 0.22 0.23 0.23 0.22 0.21 0.21 0.21 0.22 0.22 0.22 0.22 0.22 0.21 0.21 0.21 0.19 0.20 0.19 0.19 0.19 0.19 0.19 0.19 0.18 0.17 0.16 0.14 0.12 0.10 0.08 0.07 0.06 0.06 0.05 0.05 0.06
0.11 0.11 0.09 0.16 0.15 0.14 0.15 0.15 0.16 0.16 0.13 0.15 0.13 0.14 0.14 0.14 0.13 0.14 0.16 0.15 0.12 0.14 0.17 0.14 0.14 0.16 0.17 0.17 0.17 0.15 0.16 0.18 0.17 0.15 0.18 0.18 0.19 0.20 0.20 0.21 0.22 0.25 0.26 0.24 0.23 0.24 0.22 0.19 0.21 0.20 0.19 0.20 0.21 0.22 0.22 0.22 0.21 0.21 0.21 0.22 0.22 0.22 0.22 0.23 0.22 0.22 0.22 0.21 0.21 0.21 0.20 0.19 0.21 0.22 0.20 0.19 0.18 0.17 0.14 0.12 0.10 0.09 0.08 0.07 0.06 0.06 0.06 0.06
0.15 0.16 0.15 0.12 0.11 0.13 0.14 0.14 0.14 0.14 0.13 0.14 0.13 0.15 0.15 0.15 0.14 0.15 0.15 0.18 0.16 0.14 0.15 0.14 0.17 0.17 0.19 0.18 0.18 0.18 0.20 0.19 0.20 0.20 0.21 0.20 0.18 0.23 0.20 0.21 0.24 0.22 0.24 0.23 0.23 0.24 0.22 0.20 0.21 0.20 0.17 0.17 0.20 0.20 0.21 0.21 0.21 0.20 0.20 0.21 0.22 0.21 0.21 0.22 0.21 0.22 0.21 0.20 0.21 0.21 0.20 0.19 0.21 0.22 0.21 0.20 0.18 0.16 0.14 0.12 0.11 0.10 0.09 0.08 0.07 0.06 0.06 0.06
0.17 0.18 0.19 0.18 0.10 0.14 0.13 0.14 0.14 0.13 0.12 0.15 0.16 0.16 0.15 0.15 0.17 0.17 0.14 0.19 0.18 0.20 0.19 0.17 0.18 0.17 0.17 0.17 0.17 0.20 0.22 0.22 0.23 0.23 0.23 0.24 0.25 0.24 0.25 0.24 0.24 0.24 0.23 0.23 0.25 0.23 0.22 0.21 0.19 0.19 0.16 0.17 0.20 0.21 0.20 0.20 0.20 0.18 0.20 0.23 0.23 0.23 0.22 0.23 0.23 0.24 0.23 0.23 0.21 0.20 0.20 0.22 0.22 0.22 0.21 0.20 0.19 0.17 0.14 0.13 0.12 0.11 0.10 0.08 0.07 0.07 0.06 0.07
Wind_Speed
12 11 11 12 12 11 9 8 8 8 7 6 6 5 5 5 5 5 5 5 5 5 5 6 6 7 7 7 7 8 8 10 12 14 15 14 15 15 16 17 17 16 14 14 13 13 12 12 13 13 13 14 15 16 16 17 18 18 17 17 18 19 20 22 24 24 26 27 28 29 29 30 30 29 28 28 28 28 29 29 29 29 29 28 28 27 28 28
12 12 11 12 12 11 10 9 8 8 7 6 5 5 5 5 5 5 5 5 5 4 4 5 5 5 5 5 5 7 8 9 14 15 15 15 16 16 16 16 17 16 14 13 13 14 14 14 13 14 14 15 16 17 17 18 19 18 18 18 18 20 21 23 24 25 26 27 29 30 30 30 30 30 30 31 31 30 31 31 30 30 29 30 29 29 29 29
12 12 12 12 12 11 10 9 8 7 6 6 5 6 6 6 6 6 6 6 5 5 5 5 4 3 3 4 4 6 6 9 14 15 14 16 17 16 16 16 16 16 14 13 14 14 14 14 14 15 15 15 16 17 17 19 19 19 19 18 19 22 22 23 25 26 27 28 30 30 30 31 30 31 31 33 35 33 33 33 33 31 30 30 30 30 30 30
12 12 12 12 12 11 10 9 8 7 6 6 6 6 6 7 7 7 7 7 7 8 8 7 6 4 2 2 2 5 5 7 12 13 14 16 16 16 16 16 16 16 15 14 14 13 13 14 15 15 15 15 17 17 18 20 20 19 19 19 21 23 23 24 26 27 29 29 30 31 31 31 31 32 33 35 36 34 34 37 37 33 30 30 30 30 30 30
13 13 13 12 12 11 10 10 9 8 7 6 6 6 7 7 8 8 8 7 7 7 7 7 7 7 5 3 3 4 4 6 10 12 14 16 15 16 16 15 16 16 15 14 14 13 13 14 14 15 16 16 18 18 19 21 20 19 20 21 23 24 23 25 26 28 29 29 30 31 31 32 32 33 33 35 36 35 37 38 36 32 30 30 29 29 29 29
13 13 13 12 12 11 10 10 9 9 8 7 6 7 7 8 8 8 8 7 5 5 5 5 7 8 8 7 6 6 6 7 9 12 14 15 15 15 15 15 16 16 16 15 14 14 15 15 15 16 16 17 19 19 20 21 21 19 20 22 23 24 24 25 27 28 29 30 30 31 32 32 33 34 33 35 35 36 36 34 32 30 29 29 28 29 29 29
14 14 13 13 12 11 10 11 10 10 9 8 8 8 8 8 8 8 7 6 5 5 5 5 6 7 8 9 10 11 11 10 10 12 13 14 14 15 15 16 16 16 17 16 16 16 17 18 17 17 17 17 19 20 20 20 21 21 21 23 23 23 24 25 27 28 29 29 30 32 33 33 34 35 34 34 34 34 34 32 30 29 29 29 28 29 29 29
14 13 13 13 12 11 11 12 11 10 9 9 9 9 10 10 10 9 8 7 6 6 6 5 5 6 8 8 9 11 12 10 11 12 13 13 13 15 15 15 16 16 17 17 18 17 17 19 18 18 17 18 19 20 21 20 21 22 22 23 23 23 24 25 27 30 30 29 31 34 35 35 33 33 34 34 34 33 33 31 30 29 29 29 29 29 29 29
14 13 13 14 13 12 12 12 11 11 10 10 10 10 10 10 10 9 8 7 7 7 7 6 6 6 7 6 6 9 10 10 11 12 13 13 13 14 15 15 16 16 17 18 18 18 18 18 19 19 18 18 19 20 21 21 21 22 23 23 24 23 24 26 27 31 32 30 33 36 37 35 31 31 33 33 34 34 33 31 30 29 29 29 29 28 28 28
14 14 14 14 13 13 12 12 12 11 10 10 10 10 9 9 9 9 8 7 7 8 9 9 8 7 7 6 7 9 9 9 10 11 12 13 13 14 14 16 16 16 17 18 19 19 19 19 19 18 18 18 19 20 20 21 21 22 23 23 24 24 24 26 27 33 34 31 35 38 37 35 31 32 33 33 35 35 34 31 30 28 27 28 27 27 27 27
14 14 14 14 14 13 12 12 12 11 11 11 10 10 9 9 9 8 8 7 7 8 8 9 9 10 11 11 11 10 9 9 9 11 12 13 13 14 15 16 17 17 16 17 18 19 19 19 19 18 17 19 19 19 20 21 20 21 24 22 23 24 24 26 28 34 34 30 37 41 37 33 30 32 33 34 36 35 34 30 28 27 26 27 26 27 27 27
14 14 15 14 13 13 12 12 11 11 11 11 10 10 9 9 8 7 7 8 8 8 8 7 7 9 11 13 12 9 9 10 9 11 12 12 13 13 15 16 17 17 16 17 17 18 18 19 20 19 19 20 19 19 19 20 20 22 24 22 23 24 23 28 30 35 34 32 40 41 35 31 30 33 33 34 35 35 34 30 28 27 26 26 26 26 26 26
14 15 15 14 13 12 12 11 11 11 11 11 11 10 9 8 7 7 7 8 8 8 9 8 8 8 10 11 10 9 10 10 11 11 12 13 13 13 15 16 16 17 16 17 16 17 18 19 20 21 21 21 20 20 19 19 21 24 25 22 25 25 25 29 31 34 35 35 41 39 34 31 31 32 33 34 34 33 34 31 29 27 26 26 25 25 25 25
15 15 15 14 13 12 12 12 12 12 12 12 11 10 9 9 8 8 8 8 7 8 8 9 9 10 11 10 9 11 11 11 12 13 13 14 14 14 15 15 16 17 17 16 16 17 17 19 20 20 22 22 20 19 18 19 22 26 25 22 26 26 27 31 31 35 36 36 40 37 33 32 31 32 33 33 33 33 34 31 29 27 26 25 24 24 25 25
15 15 15 15 14 13 13 13 13 13 12 11 11 10 10 10 10 9 9 8 8 8 8 8 8 9 10 9 9 11 12 12 14 14 13 14 14 14 15 14 15 16 17 17 17 17 17 19 21 20 22 22 21 20 18 20 23 26 26 24 27 28 29 30 30 34 36 37 40 36 33 33 32 32 33 33 33 34 34 31 29 27 26 25 25 25 25 25
15 15 15 14 14 14 14 14 14 13 12 12 11 11 10 10 10 10 10 9 10 9 9 9 8 8 9 9 9 10 12 13 13 14 13 13 14 15 15 14 14 15 17 17 17 17 18 19 19 20 22 22 23 22 18 20 24 25 27 27 29 30 30 30 30 34 37 39 39 35 33 33 32 33 32 32 33 33 33 32 30 28 26 25 25 25 25 26
15 15 15 14 14 15 15 15 15 15 14 13 12 11 10 10 10 9 8 9 10 9 9 9 8 9 10 9 8 9 11 13 13 14 14 13 14 16 16 14 14 14 15 17 17 18 18 19 19 19 22 23 24 24 20 23 27 27 28 28 29 31 30 31 33 35 37 40 38 34 34 33 32 33 32 31 32 32 32 32 31 28 26 26 25 25 26 28
15 15 15 15 15 16 16 16 16 15 14 13 13 12 12 12 11 10 9 8 8 7 8 9 7 8 10 9 8 8 10 13 14 14 15 14 14 16 16 16 16 14 14 16 19 19 19 20 20 19 22 23 25 26 24 25 27 28 29 28 30 32 30 32 36 37 38 39 38 34 34 34 32 32 32 31 32 32 32 33 33 30 26 26 26 26 28 30
15 15 15 15 16 17 17 17 16 14 13 12 12 12 12 12 13 13 12 11 9 8 8 8 8 8 8 9 9 8 9 12 14 15 16 15 14 15 16 16 16 16 15 16 18 20 19 19 20 20 23 25 26 27 26 26 26 28 28 28 31 31 30 34 36 37 37 38 37 35 36 36 32 32 33 32 33 33 32 34 35 32 28 27 28 29 30 31
15 15 16 17 18 18 17 16 13 12 10 10 10 11 11 11 11 11 12 13 12 11 10 9 10 10 9 9 10 9 8 10 14 17 17 16 15 14 17 16 16 17 17 16 17 19 20 20 21 23 23 25 25 25 26 26 26 27 27 29 32 30 31 36 36 36 36 36 36 35 37 37 32 33 33 32 33 33 33 35 36 34 31 30 30 32 32 31
15 16 17 18 18 17 16 13 11 10 9 10 10 10 9 9 9 10 10 12 13 12 13 11 11 10 9 9 11 11 9 9 14 19 18 17 15 13 17 17 15 17 17 16 16 17 20 21 22 23 23 23 24 25 28 28 26 26 27 30 31 29 33 36 35 37 36 36 36 36 38 36 32 33 33 32 34 34 34 35 36 35 34 33 33 34 33 32
16 17 18 18 17 15 13 11 10 10 11 11 11 11 10 10 11 11 10 11 11 11 12 11 11 10 9 9 11 11 10 10 14 19 19 18 17 15 16 17 16 17 18 17 16 17 20 22 22 22 22 22 22 25 29 29 26 25 28 31 31 32 35 34 34 37 36 34 34 36 39 34 31 33 33 33 34 35 35 35 36 37 36 36 35 35 34 34
16 17 17 16 15 14 12 11 12 12 12 12 11 12 12 12 12 11 10 11 10 9 10 10 10 10 9 9 10 11 12 12 13 18 20 19 17 16 16 17 17 18 19 19 18 18 20 21 22 22 22 23 23 26 30 29 26 25 28 31 32 35 36 34 35 38 37 34 32 36 38 32 30 33 33 33 34 35 35 36 37 38 38 38 37 36 36 37
16 16 16 15 14 13 12 12 12 11 11 11 11 12 12 11 11 10 9 10 9 8 8 8 9 10 10 9 9 10 12 13 14 17 20 19 17 16 16 17 17 18 18 19 18 19 20 21 22 21 22 25 26 26 29 29 26 24 28 33 34 35 35 34 36 38 36 32 32 36 34 30 31 33 32 33 34 34 35 37 38 38 38 39 38 37 38 39
15 15 15 15 15 13 12 11 11 11 11 10 11 11 11 10 9 8 8 8 8 7 6 6 7 9 9 9 9 8 10 12 15 17 19 19 18 16 15 16 17 18 18 18 17 19 20 20 21 22 23 26 27 26 28 29 27 24 27 34 35 35 35 34 35 36 34 32 33 36 35 33 33 31 32 34 34 35 36 38 39 38 39 40 40 40 40 40
15 15 15 14 14 13 11 10 10 11 10 9 10 10 9 8 7 7 6 6 7 6 5 5 6 8 9 10 10 7 8 12 14 17 19 18 18 16 15 17 17 18 18 18 17 18 20 21 21 23 25 27 27 26 28 29 27 25 29 34 34 34 33 33 34 34 33 33 32 33 36 37 35 31 32 34 34 36 37 38 40 40 40 42 43 43 42 43
15 15 14 14 13 12 10 10 10 10 9 9 9 9 8 7 7 7 5 5 5 4 5 6 6 8 9 11 12 8 8 12 12 17 20 18 18 16 16 17 17 18 18 17 17 18 20 22 22 24 25 26 27 26 28 29 27 27 32 35 33 33 31 31 33 31 32 33 30 32 37 38 35 32 32 34 34 35 37 39 41 42 43 44 46 46 46 45
15 15 13 13 12 11 10 10 10 9 8 9 9 8 8 7 7 6 4 4 4 3 4 5 5 7 8 10 13 11 10 12 12 16 20 19 18 17 17 18 17 19 20 18 17 17 20 22 23 24 25 26 27 27 28 28 28 29 33 34 32 31 30 30 30 30 33 32 29 34 39 37 35 32 31 32 33 36 40 42 43 44 45 47 48 48 47 45
15 14 12 12 11 10 10 10 9 9 8 9 9 8 8 7 7 5 4 3 3 3 3 4 5 6 8 8 12 12 12 13 13 15 18 18 19 18 17 18 17 18 20 20 18 17 19 21 22 24 25 26 27 27 27 27 28 31 33 34 32 29 29 28 27 30 32 30 30 37 39 36 35 32 30 32 35 39 43 43 44 45 47 49 49 47 46 46
13 12 11 11 10 10 10 9 9 9 9 9 9 8 8 7 6 5 3 3 2 3 3 4 4 6 8 7 9 12 12 13 14 15 16 17 19 19 17 17 17 17 19 20 19 18 18 19 22 23 24 26 27 26 26 26 28 32 33 35 31 28 28 27 26 30 31 30 32 37 38 35 33 32 32 34 37 40 42 43 45 46 49 51 49 48 48 47
12 11 10 10 10 10 9 9 9 9 9 9 9 8 7 6 5 4 3 3 2 2 3 4 4 6 8 8 9 11 11 12 14 16 16 16 18 19 18 18 18 17 18 20 20 19 18 19 21 23 23 26 28 26 25 24 28 32 33 34 31 28 27 26 27 30 31 31 33 37 38 34 32 33 34 35 37 40 42 44 45 48 50 51 49 49 49 48
11 10 10 10 10 10 9 10 10 10 9 9 9 8 7 6 4 3 3 3 2 2 2 3 4 5 7 7 9 11 11 12 15 15 16 16 17 19 20 20 21 19 18 22 21 19 18 19 22 23 23 27 28 27 25 24 28 32 33 33 32 30 29 29 30 31 30 30 34 38 37 32 32 34 35 36 38 41 42 44 45 48 51 51 51 51 49 47
10 9 9 9 10 10 10 10 10 10 9 9 8 7 5 5 4 3 4 2 1 1 2 2 4 5 6 6 9 11 10 11 14 15 15 16 17 18 20 22 23 21 19 22 23 21 19 19 22 23 24 27 28 27 28 27 29 32 33 33 32 30 30 30 31 32 30 31 35 37 33 32 34 34 35 37 40 41 42 43 44 48 51 52 52 51 49 46
10 10 10 10 10 10 10 10 10 10 9 8 7 6 5 4 3 4 3 2 1 1 1 2 3 4 5 7 8 10 10 11 14 15 15 16 17 18 19 21 24 22 20 20 22 22 20 19 23 24 25 27 27 26 27 27 27 29 31 31 30 28 27 28 29 31 32 34 36 34 31 33 36 35 35 38 39 40 42 42 45 49 52 52 52 51 49 45
10 10 11 10 10 10 10 10 10 9 9 7 6 5 4 3 4 4 3 2 2 1 1 2 2 4 5 6 8 9 10 11 13 14 16 16 17 19 19 21 23 23 21 20 21 22 21 19 22 24 25 26 25 24 26 27 25 27 29 29 29 28 25 27 28 29 31 33 33 31 30 33 36 34 34 36 38 41 43 44 47 51 52 52 51 50 48 45
10 10 10 9 9 9 9 10 9 9 8 6 6 5 4 3 3 2 2 2 1 0 0 1 3 4 5 6 7 9 10 11 12 13 15 16 17 19 19 20 22 23 22 22 21 23 22 20 20 22 25 26 25 24 26 26 26 27 28 29 29 27 26 27 28 29 30 30 30 32 33 36 36 33 33 36 40 43 44 46 49 52 53 52 51 50 48 45
10 10 9 9 8 8 9 9 9 8 7 6 5 4 3 3 2 1 1 1 0 1 1 2 3 4 5 6 8 10 11 11 12 13 14 15 15 18 19 19 20 22 23 22 21 22 23 21 19 21 24 25 24 24 25 26 27 27 26 29 30 26 25 28 29 29 30 30 30 32 35 37 37 34 36 41 43 44 45 47 51 52 53 52 51 50 48 45
10 9 9 8 8 8 8 8 8 7 6 5 4 4 3 3 2 2 1 1 1 1 2 2 3 4 5 6 7 10 11 12 13 13 14 15 15 17 19 19 19 21 22 22 22 22 22 21 20 22 24 23 22 23 24 25 28 27 25 28 29 26 27 29 28 29 31 32 31 32 34 35 35 37 40 43 44 45 46 48 51 53 53 52 52 50 48 46
10 9 9 7 7 8 7 7 7 7 6 5 4 4 3 3 2 2 1 1 2 2 2 2 4 4 5 7 8 9 11 12 13 13 14 15 16 16 18 19 19 21 22 22 22 22 22 21 21 22 23 22 21 23 24 25 26 25 25 27 28 27 27 28 27 27 30 32 32 34 34 32 34 38 41 42 43 45 47 48 51 53 53 52 51 50 48 45
9 9 8 7 7 7 7 7 6 5 4 4 3 3 3 3 3 2 2 2 2 2 2 2 3 4 5 7 8 9 10 12 13 14 14 15 16 16 18 19 20 21 22 21 22 23 22 20 22 23 22 21 21 22 24 25 25 26 26 27 29 28 27 26 26 26 28 30 31 34 33 33 36 38 38 41 44 45 46 49 50 52 52 51 50 49 47 45
9 8 7 6 6 7 7 6 5 4 4 4 3 3 3 3 3 2 2 2 2 3 3 3 4 5 5 7 8 9 10 11 12 13 14 15 16 17 17 19 20 21 21 21 22 23 22 21 23 25 23 21 21 22 24 24 24 26 27 27 28 29 28 28 27 26 27 28 30 31 32 35 37 36 36 41 43 44 47 49 50 51 51 51 49 48 46 44
8 8 7 6 6 7 6 5 4 4 4 4 3 2 3 3 3 2 2 2 3 3 3 4 4 5 6 7 8 9 10 11 12 13 14 15 16 17 17 18 20 21 22 22 22 23 23 22 24 25 23 22 22 23 23 24 24 26 26 26 27 27 28 28 27 28 28 29 30 29 29 33 36 34 37 42 42 43 47 49 50 50 50 50 49 48 46 44
8 7 6 6 6 6 6 5 5 4 4 4 3 2 3 3 3 3 3 3 3 4 4 4 5 6 6 8 8 9 10 11 12 13 14 14 16 16 16 18 19 20 21 22 22 23 22 22 25 25 22 21 22 23 23 24 25 25 25 26 27 27 27 27 27 29 29 29 30 29 28 32 35 36 39 42 42 44 47 48 49 49 48 49 48 47 45 44
7 7 6 5 6 6 5 5 5 5 4 4 4 3 4 4 4 4 4 4 4 4 4 4 5 6 7 8 9 9 10 11 12 13 14 14 15 15 16 17 19 20 21 22 23 23 22 23 25 26 24 22 23 24 24 24 25 25 24 26 26 25 26 27 27 27 28 27 29 30 30 32 35 38 41 42 42 44 47 48 48 48 48 48 48 47 45 44
7 6 5 4 4 5 5 5 5 6 5 5 4 5 5 4 4 5 4 4 4 5 5 5 5 6 7 8 9 9 10 12 12 13 14 15 15 15 16 16 18 20 21 22 23 23 23 24 25 25 25 24 24 25 25 25 25 25 25 24 25 25 25 26 27 27 27 28 29 30 32 35 38 41 42 42 43 45 47 47 47 47 47 47 47 46 45 43
6 6 5 4 3 4 4 4 5 5 6 6 5 6 6 5 5 5 4 4 5 5 5 5 6 7 7 8 9 9 10 11 12 13 14 14 14 15 16 16 18 19 20 21 22 22 23 23 23 23 23 24 25 26 27 27 26 26 26 25 24 24 25 26 27 27 28 31 30 30 32 38 42 43 43 43 44 45 46 47 47 46 47 47 47 46 45 43
5 5 5 4 4 3 3 4 5 5 6 7 6 6 6 6 6 6 6 6 5 6 6 6 7 7 8 8 9 10 10 11 12 13 14 14 15 15 16 17 18 19 20 21 21 22 23 23 23 24 24 24 25 27 28 27 26 27 27 26 24 23 24 24 25 27 29 30 30 31 34 38 42 44 44 45 45 45 46 46 47 46 46 47 46 46 45 44
5 5 4 5 5 4 4 5 5 4 5 6 6 6 6 6 6 7 7 6 6 7 7 7 8 9 9 9 10 10 11 11 12 13 14 15 15 15 16 17 17 18 19 20 21 22 23 23 23 24 25 25 26 27 27 27 26 26 26 26 25 24 23 24 25 27 28 28 30 35 37 39 41 43 43 44 45 45 46 46 46 46 46 46 46 46 45 44
5 5 4 4 4 4 4 4 5 4 4 5 6 7 7 8 7 7 7 7 7 8 8 9 9 9 9 9 10 11 11 12 13 13 13 14 15 16 16 17 17 18 19 21 22 23 23 23 23 24 26 27 26 27 27 26 26 26 25 26 26 25 24 25 27 28 28 29 33 37 38 38 39 40 41 43 44 44 45 45 45 46 46 45 45 45 45 44
5 5 4 4 3 3 4 4 5 5 5 6 7 7 8 8 8 7 8 8 8 8 9 10 9 8 9 10 11 12 12 13 14 14 14 14 15 16 17 17 18 18 20 21 22 23 23 24 24 25 26 27 26 26 27 27 27 26 26 26 26 27 27 27 28 29 29 31 33 35 37 37 37 38 41 43 43 43 44 45 45 45 45 44 45 45 44 44
5 5 5 4 3 4 5 5 6 7 7 7 7 7 8 9 8 7 8 9 9 8 9 9 8 8 10 11 12 12 13 13 14 14 14 15 16 16 17 18 18 18 19 21 22 23 24 24 25 25 27 28 26 27 28 28 27 26 26 27 26 26 26 27 28 28 29 31 33 34 35 36 37 39 41 42 43 44 44 44 44 44 43 43 44 44 44 44
5 5 5 5 4 5 6 6 7 7 7 7 7 7 8 8 7 7 8 9 10 9 10 10 9 10 11 11 12 12 12 13 14 15 15 16 16 17 18 18 19 19 20 20 22 23 24 25 26 26 26 27 27 29 31 29 26 24 25 26 25 25 26 28 29 30 30 31 32 32 33 36 38 40 41 42 43 43 43 43 44 43 43 42 43 43 44 43
Wind_Direction
167 167 172 172 167 165 162 154 144 138 132 124 119 120 125 130 128 120 112 106 99 90 87 85 83 83 83 80 71 63 52 50 47 40 40 28 16 17 16 15 13 12 12 11 11 9 10 10 9 5 2 5 4 2 1 359 354 349 348 345 344 345 342 339 336 334 330 328 328 327 328 326 322 322 320 315 312 311 309 307 305 302 300 297 293 289 285 282
166 166 169 173 171 167 164 156 145 141 136 124 116 120 126 129 125 119 117 108 96 90 94 94 86 87 85 79 67 57 48 46 45 39 35 24 20 22 19 17 15 13 13 13 14 11 12 14 11 6 4 7 5 1 359 358 354 352 350 345 346 345 342 340 338 336 333 330 328 328 328 326 324 323 320 316 314 311 308 307 304 300 298 295 292 289 286 283
166 164 166 171 171 169 167 160 149 143 137 126 118 117 118 121 121 119 117 104 94 92 95 98 90 86 87 81 69 56 44 41 41 34 28 23 21 21 18 17 15 15 16 15 16 14 15 14 11 8 5 7 5 0 359 357 354 353 351 347 347 344 341 344 342 339 336 333 330 329 328 326 326 324 320 318 316 312 311 310 305 299 296 293 291 288 286 284
166 164 165 166 168 168 168 165 154 147 140 131 123 115 111 113 118 118 115 107 99 94 92 92 81 63 77 103 74 51 36 40 39 28 23 21 18 18 17 17 17 19 19 17 18 17 15 13 12 9 6 6 5 1 360 359 353 352 351 348 347 342 341 345 344 341 337 333 331 329 328 327 327 325 323 321 318 315 315 313 306 300 296 293 291 288 287 286
168 166 165 164 165 165 166 166 160 153 146 135 123 113 114 115 117 117 116 113 102 97 96 88 72 58 69 93 77 45 29 43 38 25 22 19 17 18 18 19 20 21 20 20 19 16 14 11 9 8 6 6 3 0 0 359 353 351 354 351 348 344 343 344 344 341 336 333 331 331 330 327 326 326 328 326 321 318 315 311 307 302 298 295 292 290 288 287
168 164 163 164 165 164 163 164 160 154 146 133 121 112 117 120 119 119 119 114 101 102 101 87 74 65 72 78 73 59 52 57 37 23 21 17 18 19 21 23 23 24 23 22 20 17 15 10 9 7 6 6 4 1 359 357 353 351 354 352 349 346 344 343 342 340 337 335 334 332 329 326 327 328 330 331 326 322 318 314 311 306 302 299 295 293 291 290
165 162 162 165 165 162 160 158 154 149 140 129 123 115 116 120 120 121 118 109 97 98 100 97 87 76 77 77 75 68 63 58 35 23 20 18 22 23 25 27 26 27 25 25 21 18 15 12 11 6 5 6 2 1 357 354 354 353 351 351 349 346 345 343 341 341 339 337 335 331 327 327 329 328 330 332 328 325 323 319 314 309 305 302 299 297 294 292
162 162 163 164 163 158 155 151 147 143 135 129 126 118 115 116 117 118 114 104 91 90 95 100 98 88 82 78 75 66 57 45 30 25 22 22 27 26 28 28 27 26 25 25 19 15 13 11 10 3 5 5 359 358 356 353 356 355 351 349 348 346 346 343 342 343 340 337 335 333 330 330 332 331 333 333 330 328 325 320 315 310 307 303 301 298 295 293
159 159 160 160 158 155 151 146 141 137 133 130 127 122 119 117 118 116 112 103 88 85 88 88 92 92 84 75 75 67 50 35 29 26 25 29 31 29 30 27 24 23 23 22 17 15 12 9 8 4 6 5 359 357 354 353 355 354 350 348 347 346 346 343 343 345 341 338 337 335 332 333 333 333 334 334 331 330 327 322 317 312 309 305 302 299 296 294
156 155 155 154 154 151 146 140 136 134 133 132 129 127 126 122 121 116 110 102 92 87 83 80 83 87 85 75 77 70 45 31 32 29 29 33 32 31 29 24 21 20 21 20 17 17 14 9 5 1 2 1 359 358 355 354 353 350 348 346 345 346 346 344 345 346 342 340 341 337 333 334 335 332 333 335 332 331 329 326 320 316 312 308 304 302 298 295
155 153 153 151 148 144 140 137 135 134 134 133 131 130 129 126 123 117 109 101 96 90 86 86 82 82 83 73 71 65 41 33 35 30 30 32 32 30 26 22 19 18 19 19 17 15 13 9 4 360 359 356 356 358 359 355 351 349 347 345 345 346 347 346 346 347 343 341 343 338 333 335 339 336 335 335 332 333 333 329 324 320 315 311 307 304 300 297
153 152 152 150 145 141 137 136 136 135 134 133 131 130 130 128 123 119 114 107 99 88 87 93 88 83 78 69 65 58 43 40 37 32 32 30 29 27 22 20 18 17 18 19 17 13 11 8 7 8 1 353 354 357 357 353 351 350 349 350 348 345 347 347 347 347 345 342 342 339 336 338 341 339 337 335 334 335 335 332 327 322 318 314 310 306 303 300
151 152 152 150 145 140 137 136 137 135 133 131 129 129 128 126 121 120 119 114 104 90 85 88 89 88 80 73 68 59 51 46 41 37 34 28 25 23 20 18 18 18 17 17 15 12 10 8 10 12 3 356 357 356 354 353 352 353 352 351 350 346 345 347 347 347 346 344 343 342 340 340 341 339 338 337 337 338 337 333 328 324 320 316 312 309 306 304
149 150 149 147 144 140 138 137 135 134 132 129 128 127 124 120 116 115 115 112 106 96 91 90 89 85 82 83 76 60 52 47 42 36 31 25 22 21 19 17 18 17 15 14 13 10 8 7 9 9 2 360 359 355 354 354 354 355 352 348 350 348 344 346 347 347 346 345 345 343 339 339 341 341 340 339 339 340 339 336 331 327 323 319 314 311 307 306
146 145 144 142 141 139 138 135 134 134 132 129 128 124 121 118 114 109 106 108 107 99 93 93 91 85 84 86 75 58 48 43 38 31 25 21 20 19 15 13 14 15 14 12 11 8 7 7 8 6 2 359 358 356 356 356 355 355 353 350 350 349 345 347 349 348 347 345 346 344 340 339 342 342 342 342 342 341 341 339 335 330 326 321 316 313 309 307
143 142 140 139 139 137 135 134 133 132 131 129 129 125 120 119 117 110 103 103 103 99 94 91 88 87 87 81 69 53 43 38 33 26 23 20 18 14 10 8 7 9 12 12 10 8 6 7 7 6 4 1 0 358 355 354 354 354 354 351 350 349 347 347 348 349 347 346 346 345 341 341 344 345 344 344 344 343 344 343 338 332 327 323 319 315 312 309
142 141 139 137 137 135 133 132 131 129 126 124 123 123 120 118 119 114 108 110 104 95 92 88 88 89 83 74 64 51 39 34 29 24 20 19 16 11 9 9 5 5 8 9 8 6 4 3 2 4 5 4 2 1 358 354 352 353 354 352 351 350 347 346 347 347 348 347 346 345 343 344 346 347 345 346 346 346 347 346 342 335 329 326 322 318 315 312
142 141 140 138 137 136 134 132 131 128 124 120 118 117 115 111 111 108 108 117 113 101 94 82 85 95 81 63 55 45 34 30 26 21 18 16 12 9 9 10 7 3 3 6 7 5 4 3 3 4 4 4 3 4 3 356 352 352 353 352 351 349 348 347 346 347 348 348 347 346 345 346 348 349 348 348 349 349 350 350 347 341 334 329 326 322 318 314
142 142 141 140 139 137 136 134 132 129 126 124 122 120 116 110 105 99 93 97 99 100 97 78 76 93 81 55 43 37 31 27 22 18 16 13 8 6 7 8 9 8 6 6 8 6 4 4 5 5 4 4 4 4 2 356 352 352 352 351 349 348 348 347 346 348 349 348 348 348 346 346 348 350 350 350 349 350 350 351 350 345 339 334 330 326 321 318
143 142 141 140 139 138 138 136 135 134 133 134 132 128 125 120 111 99 89 87 90 92 94 85 80 85 76 52 37 31 29 25 22 19 14 8 6 6 7 7 9 13 9 5 6 4 2 6 8 6 4 3 3 2 359 355 353 352 352 351 349 348 348 347 347 349 350 348 348 349 347 348 352 352 352 351 350 351 351 351 351 349 343 336 332 329 325 322
144 142 141 141 140 140 140 140 140 140 142 141 137 132 128 125 120 115 104 95 91 89 88 84 79 77 66 48 36 30 28 25 22 19 13 9 8 7 7 7 9 11 7 2 4 4 5 9 9 5 2 359 358 359 357 356 355 354 354 352 351 349 347 346 348 349 350 348 348 349 347 351 356 354 353 352 352 352 351 350 351 350 345 338 334 331 328 325
143 142 143 143 143 143 142 142 140 137 136 134 131 128 125 123 119 119 118 108 96 88 85 80 74 68 59 48 37 29 27 22 16 15 12 11 14 13 7 9 12 9 5 3 3 4 7 10 7 3 359 355 356 359 359 356 355 356 355 353 352 351 348 347 349 351 351 348 348 350 349 353 359 356 355 355 354 355 353 353 352 350 346 341 336 333 331 328
143 144 146 148 148 147 143 140 137 133 132 130 128 127 126 124 119 116 116 113 102 90 84 76 66 56 49 44 33 29 33 25 11 11 11 11 15 14 8 9 13 11 8 9 10 8 8 7 4 359 355 355 358 0 360 357 357 357 356 355 353 351 349 348 351 351 349 350 351 351 351 357 0 357 357 357 356 357 356 355 352 349 346 342 339 336 334 331
146 148 151 153 152 149 145 141 138 136 134 133 130 130 130 126 122 118 114 112 104 94 83 71 61 50 42 37 26 28 35 29 15 10 10 11 11 8 7 7 8 10 10 9 13 14 10 5 360 355 355 358 360 1 0 358 358 359 358 356 351 350 349 347 349 350 351 356 358 355 355 359 359 357 358 357 356 357 356 354 351 348 347 344 341 339 335 332
150 152 154 155 154 151 148 144 143 142 140 138 134 134 134 129 127 124 119 114 101 90 83 71 58 46 36 29 23 24 29 26 20 12 10 12 10 7 9 6 4 9 7 3 8 11 9 3 357 356 359 1 0 0 1 359 357 358 359 355 350 349 349 348 349 350 354 0 0 358 358 359 359 359 357 356 356 356 355 352 350 349 348 347 344 340 336 333
152 154 155 156 155 153 152 149 149 148 146 144 142 142 140 135 134 128 124 120 97 76 68 63 51 39 30 23 19 19 23 21 17 13 11 12 10 8 8 7 7 9 5 2 4 5 4 1 357 358 0 1 0 360 1 359 357 357 355 352 349 349 349 350 351 353 357 358 357 0 360 355 356 359 357 356 356 354 353 352 351 350 349 348 344 341 338 335
154 154 155 156 157 157 156 155 155 153 151 150 149 150 147 144 140 132 133 130 103 72 53 51 45 35 29 22 20 23 22 13 11 13 13 11 10 8 8 9 9 9 6 2 3 1 0 2 1 360 0 1 360 359 360 358 356 356 353 350 350 351 350 350 352 354 356 356 357 1 359 353 354 358 357 356 355 354 353 352 351 350 349 347 345 342 339 337
155 155 155 157 159 159 158 157 157 157 154 153 153 153 152 150 147 142 143 130 100 72 52 48 44 34 30 27 27 33 23 9 10 12 10 10 10 9 11 12 9 9 6 1 2 2 359 1 2 360 0 1 358 357 358 356 356 354 351 350 350 350 350 350 352 355 355 356 358 360 359 355 354 356 357 355 355 354 352 351 350 349 348 347 345 344 342 340
156 158 157 158 159 159 160 158 158 158 155 154 155 154 152 150 151 152 147 131 100 79 59 46 43 30 23 25 28 29 22 14 14 9 7 11 12 10 11 11 6 6 8 7 7 4 0 1 1 358 360 359 355 354 356 356 354 352 350 350 350 351 352 351 354 356 355 357 359 358 359 356 354 357 357 354 353 352 351 351 351 350 349 347 346 345 344 343
155 159 161 162 163 162 162 159 157 158 155 156 156 153 152 149 151 157 152 140 110 85 58 41 38 20 14 23 27 23 19 17 12 6 8 11 10 10 10 7 3 1 7 12 11 6 2 2 359 359 1 357 351 351 354 354 351 351 352 353 353 355 356 357 358 357 357 359 360 358 357 355 354 357 357 354 353 352 351 351 351 351 350 349 348 347 346 345
152 156 161 165 167 166 166 162 158 156 153 154 155 155 157 154 156 164 149 134 114 86 60 44 39 24 20 26 23 16 15 16 11 7 10 9 7 9 8 5 2 0 3 8 9 7 3 360 359 0 359 354 351 352 354 352 350 353 355 355 356 357 359 1 1 0 359 359 359 357 356 354 352 354 356 355 354 352 352 351 351 352 352 351 351 349 348 347
149 150 155 162 166 166 164 161 158 155 153 153 154 156 160 159 159 154 139 141 131 76 59 46 34 26 24 24 18 12 10 12 10 8 8 7 8 10 10 8 5 3 3 3 3 2 360 359 360 359 357 355 354 356 357 355 354 356 358 358 358 359 360 1 1 0 358 356 356 355 355 354 353 354 356 355 354 353 352 351 351 352 353 352 351 350 349 349
150 150 151 154 159 160 159 159 157 156 155 154 155 157 163 168 162 147 140 146 124 72 60 37 23 14 10 13 15 10 7 8 7 5 5 5 10 13 14 12 6 2 1 1 0 359 359 0 359 358 357 357 357 358 358 356 356 358 360 -0 0 360 359 358 357 357 356 354 352 353 355 354 353 355 356 355 354 354 352 352 353 353 352 351 350 350 350 351
148 150 151 150 152 153 154 157 158 158 157 157 160 162 167 168 158 156 157 137 110 107 62 28 15 9 12 16 12 5 6 8 5 3 4 5 9 11 10 10 7 3 0 360 1 359 357 358 359 358 358 358 359 0 357 355 356 359 0 0 1 1 358 354 354 354 352 350 349 353 358 356 353 355 357 356 356 355 353 353 353 352 351 351 350 351 352 352
148 148 149 149 150 151 153 156 159 160 160 162 166 168 170 162 154 163 166 142 133 137 60 32 3 1 17 19 11 4 4 6 4 3 6 7 7 7 5 5 5 4 1 1 2 359 354 355 359 359 358 358 359 358 355 353 355 357 358 359 360 359 353 349 348 347 345 347 350 356 359 355 354 357 359 357 355 355 353 352 352 352 352 352 352 353 353 353
151 149 149 149 151 153 154 157 159 161 164 168 171 169 166 158 158 165 161 158 163 216 17 11 347 351 6 8 7 6 1 0 359 360 5 7 7 6 4 3 4 3 3 3 2 360 356 355 359 359 358 359 359 357 357 357 356 355 357 358 356 354 352 349 347 345 346 348 352 355 354 353 356 360 359 356 353 354 353 351 352 352 352 353 354 354 354 354
151 150 151 151 153 156 157 158 161 163 168 173 172 168 169 170 178 180 166 178 210 289 286 326 346 351 356 358 3 3 358 358 356 356 1 2 2 4 3 3 3 2 3 2 1 1 356 353 357 357 357 359 358 358 0 360 357 357 357 356 354 354 356 353 350 350 352 351 351 353 352 352 355 358 357 354 353 353 352 351 352 353 353 354 354 354 354 354
155 154 154 152 155 159 159 159 162 166 168 166 163 168 181 184 187 186 183 232 278 279 285 316 343 348 351 353 358 357 352 355 356 356 359 358 358 0 360 1 4 2 1 359 359 1 356 352 356 356 356 358 357 357 358 358 358 359 358 357 358 357 355 354 352 353 352 351 351 353 354 353 355 355 354 353 354 353 352 352 353 353 354 354 354 355 355 354
160 161 157 154 159 163 163 165 167 173 175 171 168 175 186 184 186 198 219 267 279 286 301 327 338 341 348 350 352 353 351 354 355 355 356 356 355 357 358 359 1 2 0 357 357 359 356 354 356 354 355 357 354 353 355 355 357 358 356 358 359 356 353 354 354 353 351 350 349 350 353 355 356 355 353 353 354 353 352 352 352 353 353 354 354 355 355 354
164 165 160 158 161 161 164 167 166 169 175 174 173 182 194 192 195 214 239 265 281 298 316 331 334 337 345 346 345 347 349 350 352 353 355 355 354 355 357 357 357 358 359 356 356 356 355 354 352 351 353 354 353 354 354 353 354 355 355 356 357 356 355 353 352 353 352 350 348 348 350 352 354 355 355 353 353 352 352 352 352 352 353 353 354 355 354 354
166 169 165 164 166 167 170 165 158 165 172 169 170 183 203 202 197 212 236 262 284 302 317 327 333 337 338 340 342 342 343 346 349 351 352 354 353 353 356 356 354 356 356 354 355 355 355 352 349 349 350 350 353 355 354 354 355 354 353 354 355 356 356 353 352 354 353 348 347 346 345 347 351 355 355 353 353 352 352 352 352 352 352 353 354 355 354 355
170 171 169 171 174 176 177 168 170 185 182 184 195 198 211 218 216 228 241 257 278 292 305 317 329 334 332 335 339 339 338 342 346 348 349 352 353 353 354 354 353 353 353 354 356 356 353 351 348 347 348 351 355 356 355 356 357 355 352 353 354 355 355 353 350 350 348 345 344 344 342 346 352 355 353 352 352 351 351 352 352 352 352 353 354 354 354 355
170 169 170 175 176 181 183 177 185 194 191 205 220 218 232 242 237 241 250 261 278 288 296 308 318 325 328 330 332 333 335 338 341 344 347 349 352 353 353 352 351 352 352 353 354 354 352 351 348 346 347 352 355 354 354 356 356 354 352 351 351 352 352 350 347 348 347 345 346 347 345 347 352 353 351 351 351 351 352 352 352 352 353 353 354 354 355 355
167 167 171 177 183 193 199 195 195 197 202 215 222 227 244 256 256 253 257 270 283 288 294 305 312 318 325 326 327 331 335 336 338 342 344 345 348 351 350 349 350 351 352 353 354 353 352 350 349 347 348 351 352 352 353 353 351 350 350 350 350 351 350 349 348 349 349 346 346 346 343 344 348 349 349 349 350 351 352 352 352 352 353 353 354 354 355 355
172 174 176 181 192 202 209 209 204 201 209 216 222 234 242 252 264 266 268 277 287 293 296 303 310 315 320 321 323 329 332 333 336 341 343 343 345 348 346 346 347 349 351 352 352 351 349 349 349 350 350 349 348 348 347 346 344 344 346 347 348 350 350 348 347 347 347 346 345 341 339 341 344 347 348 349 350 351 352 352 352 353 353 353 354 354 355 355
185 187 188 195 203 203 208 216 211 207 215 221 228 241 246 247 255 264 274 277 279 290 298 301 304 308 313 314 316 321 326 330 334 337 338 339 343 345 345 344 344 347 349 350 349 349 349 348 347 346 345 343 340 338 339 340 337 337 340 342 345 348 348 347 346 343 343 344 342 338 337 338 342 346 348 349 350 351 352 352 352 353 353 354 354 354 355 354
195 197 202 212 215 211 215 224 224 222 227 234 239 241 242 247 251 258 273 279 276 282 293 297 297 298 306 310 311 316 322 326 329 332 335 337 341 343 343 342 342 344 346 347 348 349 347 346 347 344 340 337 334 333 335 336 334 333 336 339 343 347 347 346 342 339 341 343 341 341 340 338 341 345 347 348 350 351 351 351 352 352 353 353 354 354 354 354
200 201 210 223 230 235 238 234 231 232 237 246 251 245 239 243 250 258 269 276 276 278 285 291 290 291 301 309 311 315 319 320 323 329 333 335 337 339 339 339 340 342 344 346 347 349 346 345 349 346 339 335 333 331 333 334 333 333 334 335 338 342 344 342 337 336 339 339 337 339 340 338 340 345 346 348 349 349 350 351 351 352 352 353 353 353 353 354
201 201 211 227 236 246 247 235 228 231 241 250 253 249 244 241 250 265 271 271 274 277 282 288 287 288 297 305 309 313 316 319 322 326 330 332 333 334 335 337 339 339 340 343 347 348 345 345 349 346 339 336 334 333 334 334 333 333 332 333 335 336 337 337 336 336 335 332 332 335 336 337 341 345 345 347 348 348 349 350 350 351 352 352 353 353 353 353
211 213 215 218 229 249 250 241 239 242 248 256 256 254 253 248 250 265 271 271 274 274 279 286 288 292 299 301 304 310 317 321 323 325 326 328 330 331 332 335 339 339 338 340 344 345 344 345 348 345 340 339 338 338 338 337 335 333 333 334 335 335 334 335 335 336 335 333 334 335 336 339 344 345 345 346 348 348 349 349 350 351 352 352 352 352 353 353
225 229 226 223 238 258 256 252 257 256 252 257 259 257 258 255 252 259 271 278 281 280 281 285 287 293 300 299 299 309 319 323 324 326 324 324 329 331 331 334 337 337 336 338 341 342 342 342 344 343 340 341 343 343 340 338 335 334 334 334 334 335 337 338 338 338 337 336 336 336 338 342 346 346 345 346 347 347 348 349 350 351 351 351 352 352 352 352
227 233 237 243 256 262 260 259 261 260 258 264 265 260 263 262 255 261 273 277 280 283 287 289 288 290 295 297 300 310 319 321 322 324 323 323 327 330 331 333 334 334 335 337 338 340 341 339 341 342 340 340 344 343 340 339 339 340 341 339 335 335 337 338 337 337 336 336 337 337 339 342 344 345 345 346 346 347 348 348 349 350 350 351 352 352 352 352